Year,Month,Day,Hour,Minute,Value (Times are PST for windgust in km/hr)
2011,07,07,00,00,1.60
2011,07,07,00,01,4.80
2011,07,07,00,02,6.40
2011,07,07,00,03,4.80
2011,07,07,00,04,1.60
2011,07,07,00,05,3.20
2011,07,07,00,06,1.60
2011,07,07,00,10,1.60
2011,07,07,00,25,3.20
2011,07,07,00,26,3.20
2011,07,07,00,27,3.20
2011,07,07,00,28,1.60
2011,07,07,00,33,1.60
2011,07,07,00,50,1.60
2011,07,07,00,51,1.60
2011,07,07,00,54,1.60
2011,07,07,01,13,1.60
2011,07,07,03,13,1.60
2011,07,07,04,19,1.60
2011,07,07,05,13,1.60
2011,07,07,05,14,1.60
2011,07,07,05,16,1.60
2011,07,07,05,17,4.80
2011,07,07,05,18,3.20
2011,07,07,05,22,1.60
2011,07,07,05,29,3.20
2011,07,07,05,30,3.20
2011,07,07,05,31,3.20
2011,07,07,05,32,1.60
2011,07,07,05,35,1.60
2011,07,07,05,37,1.60
2011,07,07,05,41,1.60
2011,07,07,05,42,1.60
2011,07,07,05,44,1.60
2011,07,07,05,48,1.60
2011,07,07,05,49,1.60
2011,07,07,05,53,1.60
2011,07,07,06,04,1.60
2011,07,07,06,06,1.60
2011,07,07,06,14,1.60
2011,07,07,06,16,1.60
2011,07,07,06,26,4.80
2011,07,07,06,27,3.20
2011,07,07,06,30,1.60
2011,07,07,06,36,1.60
2011,07,07,06,37,4.80
2011,07,07,06,38,1.60
2011,07,07,06,40,1.60
2011,07,07,06,44,3.20
2011,07,07,06,45,4.80
2011,07,07,06,46,1.60
2011,07,07,06,47,1.60
2011,07,07,06,48,9.60
2011,07,07,06,49,6.40
2011,07,07,06,50,6.40
2011,07,07,06,51,6.40
2011,07,07,06,52,1.60
2011,07,07,06,53,8.10
2011,07,07,06,54,8.10
2011,07,07,06,55,6.40
2011,07,07,06,56,4.80
2011,07,07,06,57,4.80
2011,07,07,06,58,8.10
2011,07,07,06,59,6.40
2011,07,07,07,00,9.60
2011,07,07,07,01,8.10
2011,07,07,07,02,6.40
2011,07,07,07,03,6.40
2011,07,07,07,04,4.80
2011,07,07,07,05,1.60
2011,07,07,07,06,6.40
2011,07,07,07,07,4.80
2011,07,07,07,08,4.80
2011,07,07,07,09,11.30
2011,07,07,07,10,8.10
2011,07,07,07,11,8.10
2011,07,07,07,12,6.40
2011,07,07,07,13,8.10
2011,07,07,07,14,6.40
2011,07,07,07,15,6.40
2011,07,07,07,16,6.40
2011,07,07,07,17,1.60
2011,07,07,07,18,1.60
2011,07,07,07,20,8.10
2011,07,07,07,21,4.80
2011,07,07,07,22,1.60
2011,07,07,07,23,9.60
2011,07,07,07,24,4.80
2011,07,07,07,25,1.60
2011,07,07,07,27,4.80
2011,07,07,07,28,3.20
2011,07,07,07,30,1.60
2011,07,07,07,31,6.40
2011,07,07,07,32,1.60
2011,07,07,07,33,9.60
2011,07,07,07,34,4.80
2011,07,07,07,37,1.60
2011,07,07,07,38,6.40
2011,07,07,07,39,6.40
2011,07,07,07,40,1.60
2011,07,07,07,41,1.60
2011,07,07,07,42,8.10
2011,07,07,07,43,8.10
2011,07,07,07,44,14.50
2011,07,07,07,45,9.60
2011,07,07,07,46,1.60
2011,07,07,07,47,1.60
2011,07,07,07,49,1.60
2011,07,07,07,50,3.20
2011,07,07,07,51,6.40
2011,07,07,07,52,6.40
2011,07,07,07,53,6.40
2011,07,07,07,54,3.20
2011,07,07,07,57,1.60
2011,07,07,07,58,1.60
2011,07,07,07,59,3.20
2011,07,07,08,00,8.10
2011,07,07,08,01,6.40
2011,07,07,08,02,4.80
2011,07,07,08,03,6.40
2011,07,07,08,04,9.60
2011,07,07,08,05,8.10
2011,07,07,08,06,3.20
2011,07,07,08,07,9.60
2011,07,07,08,08,8.10
2011,07,07,08,09,4.80
2011,07,07,08,10,4.80
2011,07,07,08,11,4.80
2011,07,07,08,12,3.20
2011,07,07,08,13,4.80
2011,07,07,08,14,4.80
2011,07,07,08,15,8.10
2011,07,07,08,16,8.10
2011,07,07,08,17,1.60
2011,07,07,08,18,3.20
2011,07,07,08,19,6.40
2011,07,07,08,20,16.10
2011,07,07,08,21,9.60
2011,07,07,08,22,6.40
2011,07,07,08,23,9.60
2011,07,07,08,24,3.20
2011,07,07,08,25,3.20
2011,07,07,08,26,6.40
2011,07,07,08,27,9.60
2011,07,07,08,28,4.80
2011,07,07,08,29,8.10
2011,07,07,08,30,8.10
2011,07,07,08,31,11.30
2011,07,07,08,32,8.10
2011,07,07,08,33,6.40
2011,07,07,08,34,3.20
2011,07,07,08,35,4.80
2011,07,07,08,36,1.60
2011,07,07,08,37,1.60
2011,07,07,08,38,8.10
2011,07,07,08,39,1.60
2011,07,07,08,40,1.60
2011,07,07,08,41,1.60
2011,07,07,08,42,4.80
2011,07,07,08,43,9.60
2011,07,07,08,44,12.90
2011,07,07,08,45,8.10
2011,07,07,08,46,6.40
2011,07,07,08,47,6.40
2011,07,07,08,48,4.80
2011,07,07,08,49,1.60
2011,07,07,08,50,3.20
2011,07,07,08,51,4.80
2011,07,07,08,52,4.80
2011,07,07,08,53,1.60
2011,07,07,08,54,1.60
2011,07,07,08,55,1.60
2011,07,07,08,56,3.20
2011,07,07,08,57,6.40
2011,07,07,08,58,3.20
2011,07,07,08,59,3.20
2011,07,07,09,00,3.20
2011,07,07,09,01,3.20
2011,07,07,09,02,1.60
2011,07,07,09,03,1.60
2011,07,07,09,04,6.40
2011,07,07,09,05,4.80
2011,07,07,09,06,4.80
2011,07,07,09,07,6.40
2011,07,07,09,08,9.60
2011,07,07,09,09,8.10
2011,07,07,09,10,1.60
2011,07,07,09,11,1.60
2011,07,07,09,13,1.60
2011,07,07,09,14,8.10
2011,07,07,09,15,8.10
2011,07,07,09,16,12.90
2011,07,07,09,17,8.10
2011,07,07,09,18,9.60
2011,07,07,09,19,9.60
2011,07,07,09,20,11.30
2011,07,07,09,21,14.50
2011,07,07,09,22,6.40
2011,07,07,09,23,3.20
2011,07,07,09,24,3.20
2011,07,07,09,25,1.60
2011,07,07,09,26,6.40
2011,07,07,09,27,1.60
2011,07,07,09,28,8.10
2011,07,07,09,29,6.40
2011,07,07,09,30,6.40
2011,07,07,09,31,14.50
2011,07,07,09,32,6.40
2011,07,07,09,34,1.60
2011,07,07,09,35,6.40
2011,07,07,09,36,4.80
2011,07,07,09,38,9.60
2011,07,07,09,39,11.30
2011,07,07,09,40,4.80
2011,07,07,09,41,4.80
2011,07,07,09,42,9.60
2011,07,07,09,43,9.60
2011,07,07,09,44,3.20
2011,07,07,09,45,11.30
2011,07,07,09,46,6.40
2011,07,07,09,47,4.80
2011,07,07,09,48,6.40
2011,07,07,09,49,8.10
2011,07,07,09,50,4.80
2011,07,07,09,51,4.80
2011,07,07,09,52,4.80
2011,07,07,09,53,14.50
2011,07,07,09,54,1.60
2011,07,07,09,55,1.60
2011,07,07,09,56,9.60
2011,07,07,09,57,6.40
2011,07,07,09,58,6.40
2011,07,07,09,59,6.40
2011,07,07,10,00,11.30
2011,07,07,10,01,11.30
2011,07,07,10,02,6.40
2011,07,07,10,03,8.10
2011,07,07,10,04,6.40
2011,07,07,10,05,11.30
2011,07,07,10,06,6.40
2011,07,07,10,07,6.40
2011,07,07,10,08,4.80
2011,07,07,10,09,6.40
2011,07,07,10,10,9.60
2011,07,07,10,11,14.50
2011,07,07,10,12,9.60
2011,07,07,10,13,6.40
2011,07,07,10,14,9.60
2011,07,07,10,15,27.40
2011,07,07,10,16,24.20
2011,07,07,10,17,22.50
2011,07,07,10,18,25.70
2011,07,07,10,19,20.90
2011,07,07,10,20,19.30
2011,07,07,10,21,14.50
2011,07,07,10,22,16.10
2011,07,07,10,23,8.10
2011,07,07,10,24,8.10
2011,07,07,10,25,4.80
2011,07,07,10,26,6.40
2011,07,07,10,27,14.50
2011,07,07,10,28,20.90
2011,07,07,10,29,6.40
2011,07,07,10,30,6.40
2011,07,07,10,31,17.70
2011,07,07,10,32,17.70
2011,07,07,10,33,16.10
2011,07,07,10,34,9.60
2011,07,07,10,35,11.30
2011,07,07,10,36,12.90
2011,07,07,10,37,8.10
2011,07,07,10,38,6.40
2011,07,07,10,39,16.10
2011,07,07,10,40,8.10
2011,07,07,10,41,8.10
2011,07,07,10,42,8.10
2011,07,07,10,43,8.10
2011,07,07,10,44,11.30
2011,07,07,10,45,16.10
2011,07,07,10,46,16.10
2011,07,07,10,47,22.50
2011,07,07,10,48,16.10
2011,07,07,10,49,17.70
2011,07,07,10,50,14.50
2011,07,07,10,51,17.70
2011,07,07,10,52,17.70
2011,07,07,10,53,22.50
2011,07,07,10,54,16.10
2011,07,07,10,55,9.60
2011,07,07,10,56,6.40
2011,07,07,10,57,3.20
2011,07,07,10,58,16.10
2011,07,07,10,59,22.50
2011,07,07,11,00,9.60
2011,07,07,11,01,19.30
2011,07,07,11,02,22.50
2011,07,07,11,03,20.90
2011,07,07,11,04,33.80
2011,07,07,11,05,24.20
2011,07,07,11,06,17.70
2011,07,07,11,07,19.30
2011,07,07,11,08,19.30
2011,07,07,11,09,22.50
2011,07,07,11,10,8.10
2011,07,07,11,11,4.80
2011,07,07,11,12,4.80
2011,07,07,11,13,6.40
2011,07,07,11,14,9.60
2011,07,07,11,15,14.50
2011,07,07,11,16,9.60
2011,07,07,11,17,9.60
2011,07,07,11,18,16.10
2011,07,07,11,19,14.50
2011,07,07,11,20,6.40
2011,07,07,11,21,4.80
2011,07,07,11,22,9.60
2011,07,07,11,23,6.40
2011,07,07,11,24,14.50
2011,07,07,11,25,11.30
2011,07,07,11,26,16.10
2011,07,07,11,27,24.20
2011,07,07,11,28,16.10
2011,07,07,11,29,16.10
2011,07,07,11,30,16.10
2011,07,07,11,31,37.00
2011,07,07,11,32,19.30
2011,07,07,11,33,25.70
2011,07,07,11,34,29.00
2011,07,07,11,35,24.20
2011,07,07,11,36,16.10
2011,07,07,11,37,12.90
2011,07,07,11,38,22.50
2011,07,07,11,39,20.90
2011,07,07,11,40,20.90
2011,07,07,11,41,8.10
2011,07,07,11,42,9.60
2011,07,07,11,43,17.70
2011,07,07,11,44,14.50
2011,07,07,11,45,17.70
2011,07,07,11,46,11.30
2011,07,07,11,47,11.30
2011,07,07,11,48,16.10
2011,07,07,11,49,6.40
2011,07,07,11,50,9.60
2011,07,07,11,51,8.10
2011,07,07,11,52,9.60
2011,07,07,11,53,8.10
2011,07,07,11,54,11.30
2011,07,07,11,55,8.10
2011,07,07,11,56,22.50
2011,07,07,11,57,6.40
2011,07,07,11,58,4.80
2011,07,07,11,59,6.40
2011,07,07,12,00,4.80
2011,07,07,12,01,14.50
2011,07,07,12,02,19.30
2011,07,07,12,03,16.10
2011,07,07,12,04,22.50
2011,07,07,12,05,8.10
2011,07,07,12,06,11.30
2011,07,07,12,07,8.10
2011,07,07,12,08,17.70
2011,07,07,12,09,22.50
2011,07,07,12,10,14.50
2011,07,07,12,11,11.30
2011,07,07,12,12,9.60
2011,07,07,12,13,8.10
2011,07,07,12,14,9.60
2011,07,07,12,15,20.90
2011,07,07,12,16,9.60
2011,07,07,12,17,9.60
2011,07,07,12,18,6.40
2011,07,07,12,19,8.10
2011,07,07,12,20,17.70
2011,07,07,12,21,17.70
2011,07,07,12,22,24.20
2011,07,07,12,23,16.10
2011,07,07,12,24,17.70
2011,07,07,12,25,17.70
2011,07,07,12,26,16.10
2011,07,07,12,27,11.30
2011,07,07,12,28,11.30
2011,07,07,12,29,9.60
2011,07,07,12,30,8.10
2011,07,07,12,31,14.50
2011,07,07,12,32,12.90
2011,07,07,12,33,11.30
2011,07,07,12,34,8.10
2011,07,07,12,35,8.10
2011,07,07,12,36,20.90
2011,07,07,12,37,8.10
2011,07,07,12,38,8.10
2011,07,07,12,39,19.30
2011,07,07,12,40,17.70
2011,07,07,12,41,12.90
2011,07,07,12,42,14.50
2011,07,07,12,43,9.60
2011,07,07,12,44,11.30
2011,07,07,12,45,8.10
2011,07,07,12,46,4.80
2011,07,07,12,47,16.10
2011,07,07,12,48,24.20
2011,07,07,12,49,17.70
2011,07,07,12,50,9.60
2011,07,07,12,51,17.70
2011,07,07,12,52,11.30
2011,07,07,12,53,11.30
2011,07,07,12,54,11.30
2011,07,07,12,55,8.10
2011,07,07,12,56,14.50
2011,07,07,12,57,19.30
2011,07,07,12,58,8.10
2011,07,07,12,59,8.10
2011,07,07,13,00,3.20
2011,07,07,13,01,9.60
2011,07,07,13,02,6.40
2011,07,07,13,03,6.40
2011,07,07,13,04,16.10
2011,07,07,13,05,9.60
2011,07,07,13,06,14.50
2011,07,07,13,07,17.70
2011,07,07,13,08,14.50
2011,07,07,13,09,11.30
2011,07,07,13,10,19.30
2011,07,07,13,11,11.30
2011,07,07,13,12,29.00
2011,07,07,13,13,4.80
2011,07,07,13,14,8.10
2011,07,07,13,15,4.80
2011,07,07,13,16,6.40
2011,07,07,13,17,6.40
2011,07,07,13,18,16.10
2011,07,07,13,19,11.30
2011,07,07,13,20,17.70
2011,07,07,13,21,24.20
2011,07,07,13,22,9.60
2011,07,07,13,23,3.20
2011,07,07,13,24,8.10
2011,07,07,13,25,14.50
2011,07,07,13,26,22.50
2011,07,07,13,27,17.70
2011,07,07,13,28,16.10
2011,07,07,13,29,22.50
2011,07,07,13,30,19.30
2011,07,07,13,31,6.40
2011,07,07,13,32,20.90
2011,07,07,13,33,11.30
2011,07,07,13,34,8.10
2011,07,07,13,35,8.10
2011,07,07,13,36,14.50
2011,07,07,13,37,20.90
2011,07,07,13,38,8.10
2011,07,07,13,39,17.70
2011,07,07,13,40,16.10
2011,07,07,13,41,9.60
2011,07,07,13,42,20.90
2011,07,07,13,43,20.90
2011,07,07,13,44,12.90
2011,07,07,13,45,16.10
2011,07,07,13,46,22.50
2011,07,07,13,47,20.90
2011,07,07,13,48,9.60
2011,07,07,13,49,14.50
2011,07,07,13,50,14.50
2011,07,07,13,51,19.30
2011,07,07,13,52,19.30
2011,07,07,13,53,17.70
2011,07,07,13,54,22.50
2011,07,07,13,55,11.30
2011,07,07,13,56,11.30
2011,07,07,13,57,6.40
2011,07,07,13,58,14.50
2011,07,07,13,59,16.10
2011,07,07,14,00,32.20
2011,07,07,14,01,27.40
2011,07,07,14,02,35.40
2011,07,07,14,03,20.90
2011,07,07,14,04,22.50
2011,07,07,14,05,32.20
2011,07,07,14,06,35.40
2011,07,07,14,07,27.40
2011,07,07,14,08,19.30
2011,07,07,14,09,24.20
2011,07,07,14,10,19.30
2011,07,07,14,11,29.00
2011,07,07,14,12,29.00
2011,07,07,14,13,27.40
2011,07,07,14,14,30.60
2011,07,07,14,15,25.70
2011,07,07,14,16,27.40
2011,07,07,14,17,24.20
2011,07,07,14,18,20.90
2011,07,07,14,19,17.70
2011,07,07,14,20,32.20
2011,07,07,14,21,25.70
2011,07,07,14,22,17.70
2011,07,07,14,23,33.80
2011,07,07,14,24,25.70
2011,07,07,14,25,24.20
2011,07,07,14,26,19.30
2011,07,07,14,27,17.70
2011,07,07,14,28,8.10
2011,07,07,14,29,9.60
2011,07,07,14,30,17.70
2011,07,07,14,31,20.90
2011,07,07,14,32,8.10
2011,07,07,14,33,1.60
2011,07,07,14,34,6.40
2011,07,07,14,35,11.30
2011,07,07,14,36,14.50
2011,07,07,14,37,20.90
2011,07,07,14,38,32.20
2011,07,07,14,39,14.50
2011,07,07,14,40,20.90
2011,07,07,14,41,35.40
2011,07,07,14,42,24.20
2011,07,07,14,43,11.30
2011,07,07,14,44,32.20
2011,07,07,14,45,27.40
2011,07,07,14,46,24.20
2011,07,07,14,47,24.20
2011,07,07,14,48,24.20
2011,07,07,14,49,33.80
2011,07,07,14,50,37.00
2011,07,07,14,51,16.10
2011,07,07,14,52,25.70
2011,07,07,14,53,29.00
2011,07,07,14,54,25.70
2011,07,07,14,55,38.60
2011,07,07,14,56,38.60
2011,07,07,14,57,30.60
2011,07,07,14,58,25.70
2011,07,07,14,59,25.70
2011,07,07,15,00,22.50
2011,07,07,15,01,9.60
2011,07,07,15,02,8.10
2011,07,07,15,03,8.10
2011,07,07,15,04,6.40
2011,07,07,15,05,30.60
2011,07,07,15,06,33.80
2011,07,07,15,07,22.50
2011,07,07,15,08,33.80
2011,07,07,15,09,22.50
2011,07,07,15,10,25.70
2011,07,07,15,11,20.90
2011,07,07,15,12,22.50
2011,07,07,15,13,12.90
2011,07,07,15,14,20.90
2011,07,07,15,15,22.50
2011,07,07,15,16,20.90
2011,07,07,15,17,25.70
2011,07,07,15,18,27.40
2011,07,07,15,19,32.20
2011,07,07,15,20,33.80
2011,07,07,15,21,22.50
2011,07,07,15,22,17.70
2011,07,07,15,23,17.70
2011,07,07,15,24,22.50
2011,07,07,15,25,24.20
2011,07,07,15,26,27.40
2011,07,07,15,27,16.10
2011,07,07,15,28,16.10
2011,07,07,15,29,11.30
2011,07,07,15,30,27.40
2011,07,07,15,31,11.30
2011,07,07,15,32,19.30
2011,07,07,15,33,24.20
2011,07,07,15,34,25.70
2011,07,07,15,35,8.10
2011,07,07,15,36,30.60
2011,07,07,15,37,27.40
2011,07,07,15,38,24.20
2011,07,07,15,39,27.40
2011,07,07,15,40,22.50
2011,07,07,15,41,24.20
2011,07,07,15,42,25.70
2011,07,07,15,43,30.60
2011,07,07,15,44,37.00
2011,07,07,15,45,24.20
2011,07,07,15,46,38.60
2011,07,07,15,47,32.20
2011,07,07,15,48,40.20
2011,07,07,15,49,32.20
2011,07,07,15,50,17.70
2011,07,07,15,51,11.30
2011,07,07,15,52,19.30
2011,07,07,15,53,19.30
2011,07,07,15,54,41.80
2011,07,07,15,55,22.50
2011,07,07,15,56,25.70
2011,07,07,15,57,16.10
2011,07,07,15,58,29.00
2011,07,07,15,59,19.30
2011,07,07,16,00,14.50
2011,07,07,16,01,16.10
2011,07,07,16,02,25.70
2011,07,07,16,03,19.30
2011,07,07,16,04,25.70
2011,07,07,16,05,22.50
2011,07,07,16,06,27.40
2011,07,07,16,07,16.10
2011,07,07,16,08,24.20
2011,07,07,16,09,17.70
2011,07,07,16,10,25.70
2011,07,07,16,11,30.60
2011,07,07,16,12,20.90
2011,07,07,16,13,16.10
2011,07,07,16,14,17.70
2011,07,07,16,15,12.90
2011,07,07,16,16,9.60
2011,07,07,16,17,11.30
2011,07,07,16,18,25.70
2011,07,07,16,19,32.20
2011,07,07,16,20,27.40
2011,07,07,16,21,16.10
2011,07,07,16,22,17.70
2011,07,07,16,23,17.70
2011,07,07,16,24,27.40
2011,07,07,16,25,49.90
2011,07,07,16,26,24.20
2011,07,07,16,27,25.70
2011,07,07,16,28,20.90
2011,07,07,16,29,19.30
2011,07,07,16,30,6.40
2011,07,07,16,31,17.70
2011,07,07,16,32,9.60
2011,07,07,16,33,16.10
2011,07,07,16,34,16.10
2011,07,07,16,35,29.00
2011,07,07,16,36,22.50
2011,07,07,16,37,19.30
2011,07,07,16,38,20.90
2011,07,07,16,39,22.50
2011,07,07,16,40,30.60
2011,07,07,16,41,14.50
2011,07,07,16,42,11.30
2011,07,07,16,43,14.50
2011,07,07,16,44,11.30
2011,07,07,16,45,22.50
2011,07,07,16,46,24.20
2011,07,07,16,47,17.70
2011,07,07,16,48,8.10
2011,07,07,16,49,14.50
2011,07,07,16,50,22.50
2011,07,07,16,51,6.40
2011,07,07,16,52,29.00
2011,07,07,16,53,11.30
2011,07,07,16,54,20.90
2011,07,07,16,55,20.90
2011,07,07,16,56,17.70
2011,07,07,16,57,17.70
2011,07,07,16,58,20.90
2011,07,07,16,59,11.30
2011,07,07,17,00,30.60
2011,07,07,17,01,16.10
2011,07,07,17,02,6.40
2011,07,07,17,03,11.30
2011,07,07,17,04,6.40
2011,07,07,17,05,4.80
2011,07,07,17,06,14.50
2011,07,07,17,07,11.30
2011,07,07,17,08,9.60
2011,07,07,17,09,8.10
2011,07,07,17,10,19.30
2011,07,07,17,11,14.50
2011,07,07,17,12,20.90
2011,07,07,17,13,24.20
2011,07,07,17,14,14.50
2011,07,07,17,15,8.10
2011,07,07,17,16,9.60
2011,07,07,17,17,6.40
2011,07,07,17,18,9.60
2011,07,07,17,19,11.30
2011,07,07,17,20,16.10
2011,07,07,17,21,22.50
2011,07,07,17,22,30.60
2011,07,07,17,23,24.20
2011,07,07,17,24,22.50
2011,07,07,17,25,19.30
2011,07,07,17,26,14.50
2011,07,07,17,27,11.30
2011,07,07,17,28,19.30
2011,07,07,17,29,19.30
2011,07,07,17,30,17.70
2011,07,07,17,31,30.60
2011,07,07,17,32,11.30
2011,07,07,17,33,6.40
2011,07,07,17,34,19.30
2011,07,07,17,35,19.30
2011,07,07,17,36,20.90
2011,07,07,17,37,4.80
2011,07,07,17,38,3.20
2011,07,07,17,39,12.90
2011,07,07,17,40,11.30
2011,07,07,17,41,22.50
2011,07,07,17,42,24.20
2011,07,07,17,43,37.00
2011,07,07,17,44,22.50
2011,07,07,17,45,12.90
2011,07,07,17,46,16.10
2011,07,07,17,47,6.40
2011,07,07,17,48,19.30
2011,07,07,17,49,12.90
2011,07,07,17,50,24.20
2011,07,07,17,51,29.00
2011,07,07,17,52,17.70
2011,07,07,17,53,9.60
2011,07,07,17,54,6.40
2011,07,07,17,55,14.50
2011,07,07,17,56,19.30
2011,07,07,17,57,17.70
2011,07,07,17,58,20.90
2011,07,07,17,59,16.10
2011,07,07,18,00,11.30
2011,07,07,18,01,17.70
2011,07,07,18,02,19.30
2011,07,07,18,03,20.90
2011,07,07,18,04,17.70
2011,07,07,18,05,14.50
2011,07,07,18,06,8.10
2011,07,07,18,07,24.20
2011,07,07,18,08,11.30
2011,07,07,18,09,20.90
2011,07,07,18,10,16.10
2011,07,07,18,11,16.10
2011,07,07,18,12,17.70
2011,07,07,18,13,11.30
2011,07,07,18,14,20.90
2011,07,07,18,15,12.90
2011,07,07,18,16,11.30
2011,07,07,18,17,14.50
2011,07,07,18,18,4.80
2011,07,07,18,19,8.10
2011,07,07,18,20,8.10
2011,07,07,18,21,19.30
2011,07,07,18,22,8.10
2011,07,07,18,23,6.40
2011,07,07,18,24,14.50
2011,07,07,18,25,14.50
2011,07,07,18,26,20.90
2011,07,07,18,27,17.70
2011,07,07,18,28,32.20
2011,07,07,18,29,22.50
2011,07,07,18,30,16.10
2011,07,07,18,31,27.40
2011,07,07,18,32,32.20
2011,07,07,18,33,25.70
2011,07,07,18,34,20.90
2011,07,07,18,35,17.70
2011,07,07,18,36,32.20
2011,07,07,18,37,22.50
2011,07,07,18,38,16.10
2011,07,07,18,39,11.30
2011,07,07,18,40,8.10
2011,07,07,18,41,9.60
2011,07,07,18,42,8.10
2011,07,07,18,43,14.50
2011,07,07,18,44,22.50
2011,07,07,18,45,20.90
2011,07,07,18,46,19.30
2011,07,07,18,47,20.90
2011,07,07,18,48,24.20
2011,07,07,18,49,22.50
2011,07,07,18,50,30.60
2011,07,07,18,51,30.60
2011,07,07,18,52,33.80
2011,07,07,18,53,24.20
2011,07,07,18,54,19.30
2011,07,07,18,55,16.10
2011,07,07,18,56,16.10
2011,07,07,18,57,17.70
2011,07,07,18,58,24.20
2011,07,07,18,59,16.10
2011,07,07,19,00,20.90
2011,07,07,19,01,20.90
2011,07,07,19,02,22.50
2011,07,07,19,03,16.10
2011,07,07,19,04,16.10
2011,07,07,19,05,25.70
2011,07,07,19,06,30.60
2011,07,07,19,07,24.20
2011,07,07,19,08,20.90
2011,07,07,19,09,16.10
2011,07,07,19,10,11.30
2011,07,07,19,11,30.60
2011,07,07,19,12,22.50
2011,07,07,19,13,16.10
2011,07,07,19,14,19.30
2011,07,07,19,15,16.10
2011,07,07,19,16,20.90
2011,07,07,19,17,30.60
2011,07,07,19,18,19.30
2011,07,07,19,19,9.60
2011,07,07,19,20,22.50
2011,07,07,19,21,17.70
2011,07,07,19,22,20.90
2011,07,07,19,23,14.50
2011,07,07,19,24,22.50
2011,07,07,19,25,22.50
2011,07,07,19,26,24.20
2011,07,07,19,27,35.40
2011,07,07,19,28,24.20
2011,07,07,19,29,20.90
2011,07,07,19,30,22.50
2011,07,07,19,31,20.90
2011,07,07,19,32,8.10
2011,07,07,19,33,14.50
2011,07,07,19,34,27.40
2011,07,07,19,35,29.00
2011,07,07,19,36,19.30
2011,07,07,19,37,16.10
2011,07,07,19,38,14.50
2011,07,07,19,39,11.30
2011,07,07,19,40,22.50
2011,07,07,19,41,22.50
2011,07,07,19,42,6.40
2011,07,07,19,43,20.90
2011,07,07,19,44,30.60
2011,07,07,19,45,32.20
2011,07,07,19,46,19.30
2011,07,07,19,47,20.90
2011,07,07,19,48,12.90
2011,07,07,19,49,33.80
2011,07,07,19,50,32.20
2011,07,07,19,51,35.40
2011,07,07,19,52,16.10
2011,07,07,19,53,4.80
2011,07,07,19,54,6.40
2011,07,07,19,55,9.60
2011,07,07,19,56,11.30
2011,07,07,19,57,9.60
2011,07,07,19,58,16.10
2011,07,07,19,59,11.30
2011,07,07,20,00,14.50
2011,07,07,20,01,17.70
2011,07,07,20,02,11.30
2011,07,07,20,03,14.50
2011,07,07,20,04,6.40
2011,07,07,20,05,14.50
2011,07,07,20,06,8.10
2011,07,07,20,07,19.30
2011,07,07,20,08,20.90
2011,07,07,20,09,29.00
2011,07,07,20,10,11.30
2011,07,07,20,11,8.10
2011,07,07,20,12,11.30
2011,07,07,20,13,16.10
2011,07,07,20,14,8.10
2011,07,07,20,15,24.20
2011,07,07,20,16,12.90
2011,07,07,20,17,12.90
2011,07,07,20,18,9.60
2011,07,07,20,19,6.40
2011,07,07,20,20,9.60
2011,07,07,20,21,19.30
2011,07,07,20,22,16.10
2011,07,07,20,23,16.10
2011,07,07,20,24,16.10
2011,07,07,20,25,16.10
2011,07,07,20,26,8.10
2011,07,07,20,27,11.30
2011,07,07,20,28,11.30
2011,07,07,20,29,11.30
2011,07,07,20,30,16.10
2011,07,07,20,31,11.30
2011,07,07,20,32,14.50
2011,07,07,20,33,9.60
2011,07,07,20,34,16.10
2011,07,07,20,35,9.60
2011,07,07,20,36,17.70
2011,07,07,20,37,14.50
2011,07,07,20,38,6.40
2011,07,07,20,39,14.50
2011,07,07,20,40,12.90
2011,07,07,20,41,9.60
2011,07,07,20,42,6.40
2011,07,07,20,43,4.80
2011,07,07,20,44,4.80
2011,07,07,20,45,3.20
2011,07,07,20,46,3.20
2011,07,07,20,47,4.80
2011,07,07,20,48,4.80
2011,07,07,20,49,17.70
2011,07,07,20,50,27.40
2011,07,07,20,51,8.10
2011,07,07,20,52,4.80
2011,07,07,20,53,1.60
2011,07,07,20,54,6.40
2011,07,07,20,55,6.40
2011,07,07,20,56,4.80
2011,07,07,20,57,3.20
2011,07,07,20,58,8.10
2011,07,07,20,59,8.10
2011,07,07,21,00,9.60
2011,07,07,21,01,1.60
2011,07,07,21,02,8.10
2011,07,07,21,03,4.80
2011,07,07,21,04,6.40
2011,07,07,21,05,4.80
2011,07,07,21,06,9.60
2011,07,07,21,07,9.60
2011,07,07,21,08,12.90
2011,07,07,21,09,8.10
2011,07,07,21,10,11.30
2011,07,07,21,11,19.30
2011,07,07,21,12,14.50
2011,07,07,21,13,3.20
2011,07,07,21,14,4.80
2011,07,07,21,15,6.40
2011,07,07,21,16,6.40
2011,07,07,21,17,14.50
2011,07,07,21,18,17.70
2011,07,07,21,19,16.10
2011,07,07,21,20,8.10
2011,07,07,21,21,11.30
2011,07,07,21,22,20.90
2011,07,07,21,23,14.50
2011,07,07,21,26,8.10
2011,07,07,21,27,14.50
2011,07,07,21,28,16.10
2011,07,07,21,29,25.70
2011,07,07,21,30,14.50
2011,07,07,21,31,27.40
2011,07,07,21,32,22.50
2011,07,07,21,33,8.10
2011,07,07,21,34,6.40
2011,07,07,21,35,14.50
2011,07,07,21,36,19.30
2011,07,07,21,37,17.70
2011,07,07,21,38,24.20
2011,07,07,21,39,30.60
2011,07,07,21,40,8.10
2011,07,07,21,41,16.10
2011,07,07,21,42,14.50
2011,07,07,21,43,20.90
2011,07,07,21,44,8.10
2011,07,07,21,45,11.30
2011,07,07,21,46,24.20
2011,07,07,21,47,24.20
2011,07,07,21,48,24.20
2011,07,07,21,49,30.60
2011,07,07,21,50,20.90
2011,07,07,21,51,8.10
2011,07,07,21,52,8.10
2011,07,07,21,53,8.10
2011,07,07,21,54,14.50
2011,07,07,21,55,24.20
2011,07,07,21,56,25.70
2011,07,07,21,57,25.70
2011,07,07,21,58,19.30
2011,07,07,21,59,20.90
2011,07,07,22,00,25.70
2011,07,07,22,01,19.30
2011,07,07,22,02,6.40
2011,07,07,22,03,3.20
2011,07,07,22,04,17.70
2011,07,07,22,05,11.30
2011,07,07,22,06,6.40
2011,07,07,22,07,9.60
2011,07,07,22,08,17.70
2011,07,07,22,09,9.60
2011,07,07,22,10,20.90
2011,07,07,22,11,20.90
2011,07,07,22,12,14.50
2011,07,07,22,13,29.00
2011,07,07,22,14,9.60
2011,07,07,22,15,6.40
2011,07,07,22,16,3.20
2011,07,07,22,17,22.50
2011,07,07,22,18,16.10
2011,07,07,22,19,6.40
2011,07,07,22,20,9.60
2011,07,07,22,21,20.90
2011,07,07,22,22,14.50
2011,07,07,22,23,11.30
2011,07,07,22,24,11.30
2011,07,07,22,25,4.80
2011,07,07,22,26,6.40
2011,07,07,22,27,16.10
2011,07,07,22,28,14.50
2011,07,07,22,29,14.50
2011,07,07,22,30,22.50
2011,07,07,22,31,27.40
2011,07,07,22,32,9.60
2011,07,07,22,33,4.80
2011,07,07,22,34,9.60
2011,07,07,22,35,8.10
2011,07,07,22,36,19.30
2011,07,07,22,37,19.30
2011,07,07,22,38,19.30
2011,07,07,22,39,20.90
2011,07,07,22,40,27.40
2011,07,07,22,41,19.30
2011,07,07,22,42,16.10
2011,07,07,22,43,11.30
2011,07,07,22,44,9.60
2011,07,07,22,45,16.10
2011,07,07,22,46,8.10
2011,07,07,22,47,4.80
2011,07,07,22,48,19.30
2011,07,07,22,49,11.30
2011,07,07,22,50,14.50
2011,07,07,22,51,14.50
2011,07,07,22,52,11.30
2011,07,07,22,53,6.40
2011,07,07,22,54,9.60
2011,07,07,22,55,3.20
2011,07,07,22,56,20.90
2011,07,07,22,57,24.20
2011,07,07,22,58,9.60
2011,07,07,22,59,9.60
2011,07,07,23,00,4.80
2011,07,07,23,01,6.40
2011,07,07,23,02,8.10
2011,07,07,23,03,6.40
2011,07,07,23,04,3.20
2011,07,07,23,06,4.80
2011,07,07,23,07,4.80
2011,07,07,23,08,3.20
2011,07,07,23,09,6.40
2011,07,07,23,10,8.10
2011,07,07,23,11,9.60
2011,07,07,23,12,9.60
2011,07,07,23,13,20.90
2011,07,07,23,14,11.30
2011,07,07,23,15,19.30
2011,07,07,23,16,4.80
2011,07,07,23,17,9.60
2011,07,07,23,18,14.50
2011,07,07,23,19,9.60
2011,07,07,23,20,8.10
2011,07,07,23,21,8.10
2011,07,07,23,22,9.60
2011,07,07,23,23,8.10
2011,07,07,23,24,4.80
2011,07,07,23,25,11.30
2011,07,07,23,26,8.10
2011,07,07,23,27,9.60
2011,07,07,23,28,11.30
2011,07,07,23,29,9.60
2011,07,07,23,30,6.40
2011,07,07,23,31,3.20
2011,07,07,23,32,4.80
2011,07,07,23,35,1.60
2011,07,07,23,36,6.40
2011,07,07,23,37,6.40
2011,07,07,23,38,6.40
2011,07,07,23,39,3.20
2011,07,07,23,40,6.40
2011,07,07,23,41,1.60
2011,07,07,23,42,4.80
2011,07,07,23,43,1.60
2011,07,07,23,44,1.60
2011,07,07,23,45,3.20
2011,07,07,23,46,6.40
2011,07,07,23,47,11.30
2011,07,07,23,48,3.20
2011,07,07,23,49,3.20
2011,07,07,23,50,1.60
2011,07,07,23,52,6.40
2011,07,07,23,53,1.60